Naples, FL

2:48 PM EDT on April 29, 2017 (GMT -0400)
Naples Municipal

Weather History for KAPF - February, 2015

Change the Weather History Date:

Monday, February 23, 2015

  Actual Average Record
Temperature  
Mean Temperature 72 °F 68 °F  
Max Temperature 80 °F 78 °F 87 °F (1962)
Min Temperature 63 °F 58 °F 34 °F (1978)
Degree Days  
Heating Degree Days 0 1  
Month to date heating degree days 78 44  
Since 1 July heating degree days 195 224  
Cooling Degree Days 7 4  
Month to date cooling degree days 33 82  
Year to date cooling degree days 150 168  
Growing Degree Days 22 (Base 50)    
Moisture  
Dew Point 67 °F    
Average Humidity 86    
Maximum Humidity 100    
Minimum Humidity 71    
Precipitation  
Precipitation 0.00 in 0.07 in 1.64 in (1965)
Month to date precipitation 1.35 1.72  
Year to date precipitation 1.45 3.57  
Snow  
Snow 0.00 in - - ()
Month to date snowfall 0.0  
Since 1 July snowfall 0.0  
Snow Depth 0.00 in    
Sea Level Pressure  
Sea Level Pressure 30.16 in    
Wind  
Wind Speed 5 mph (NW)    
Max Wind Speed 14 mph    
Max Gust Speed 16 mph    
Visibility 5 miles    
Events Fog    
T = Trace of Precipitation, MM = Missing Value Source: NWS Daily Summary

Daily Weather History Graph

Daily Weather History Graph

Search for Another Location

Airport or City:

Trip Planner

Search our weather history database for the weather conditions in past years. The results will help you decide how hot, cold, wet, or windy it might be!

Date:

Astronomy

Feb. 23, 2015 Rise Set
Actual Time 6:56 AM EST 6:25 PM EST
Civil Twilight 6:32 AM EST 6:48 PM EST
Nautical Twilight 6:06 AM EST 7:15 PM EST
Astronomical Twilight 5:39 AM EST 7:42 PM EST
Moon 10:18 AM EST (2/23) 11:37 PM EST (2/23)
Length of Visible Light 12h 15m
Length of Day
11h 28m
Waxing Crescent, 29% of the Moon is Illuminated
Feb 23
Waxing Crescent
Feb 25
First Quarter
Mar 5
Full
Mar 13
Last Quarter
Mar 20
New

Hourly Weather History & Observations

Time (EST) Temp. Dew Point Humidity Pressure Visibility Wind Dir Wind Speed Gust Speed Precip Events Conditions
12:53 AM 66.0 °F 64.9 °F 96% 30.17 in 8.0 mi Calm Calm - N/A   Clear
1:53 AM 64.9 °F 64.0 °F 97% 30.17 in 7.0 mi Calm Calm - N/A   Clear
2:53 AM 64.9 °F 64.0 °F 97% 30.15 in 10.0 mi East 3.5 mph - N/A   Clear
3:53 AM 64.0 °F 64.0 °F 100% 30.14 in 8.0 mi Calm Calm - N/A   Clear
4:53 AM 64.0 °F 64.0 °F 100% 30.14 in 7.0 mi Calm Calm - N/A   Clear
5:34 AM 64.0 °F 64.0 °F 100% 30.16 in 8.0 mi Calm Calm - N/A   Scattered Clouds
5:38 AM 64.0 °F 64.0 °F 100% 30.16 in 8.0 mi NNE 3.5 mph - N/A   Mostly Cloudy
5:53 AM 64.0 °F 63.0 °F 96% 30.16 in 7.0 mi ENE 3.5 mph - N/A   Overcast
6:39 AM 64.0 °F 64.0 °F 100% 30.17 in 1.5 mi East 4.6 mph - N/A   Overcast
6:43 AM 64.0 °F 64.0 °F 100% 30.17 in 0.5 mi ENE 4.6 mph - N/A Fog Fog
6:53 AM 64.0 °F 64.0 °F 100% 30.17 in 0.2 mi ENE 3.5 mph - N/A Fog Fog
7:53 AM 66.0 °F 66.0 °F 100% 30.18 in 0.2 mi Calm Calm - N/A Fog Fog
8:10 AM 66.9 °F 66.9 °F 100% 30.19 in 0.8 mi ENE 3.5 mph - N/A   Mist
8:16 AM 66.9 °F 66.9 °F 100% 30.19 in 2.0 mi East 3.5 mph - N/A   Overcast
8:24 AM 66.9 °F 66.9 °F 100% 30.19 in 4.0 mi Calm Calm - N/A   Overcast
8:31 AM 68.0 °F 68.0 °F 100% 30.19 in 0.2 mi East 3.5 mph - N/A   Overcast
8:39 AM 69.1 °F 68.0 °F 96% 30.19 in 1.0 mi East 3.5 mph - N/A   Overcast
8:50 AM 69.8 °F 69.8 °F 100% 30.20 in 2.0 mi Variable 3.5 mph - N/A   Overcast
8:53 AM 70.0 °F 69.1 °F 97% 30.20 in 2.0 mi SE 3.5 mph - N/A   Overcast
9:12 AM 70.0 °F 70.0 °F 100% 30.20 in 7.0 mi SE 4.6 mph - N/A   Mostly Cloudy
9:25 AM 71.1 °F 70.0 °F 96% 30.21 in 9.0 mi ESE 3.5 mph - N/A   Scattered Clouds
9:53 AM 75.0 °F 70.0 °F 84% 30.21 in 10.0 mi SE 4.6 mph - N/A   Scattered Clouds
10:53 AM 79.0 °F 69.1 °F 72% 30.21 in 10.0 mi SW 6.9 mph - N/A   Scattered Clouds
11:53 AM 79.0 °F 68.0 °F 69% 30.18 in 10.0 mi SW 9.2 mph - N/A   Clear
12:53 PM 79.0 °F 68.0 °F 69% 30.16 in 10.0 mi SW 10.4 mph - N/A   Clear
1:53 PM 78.1 °F 69.1 °F 74% 30.14 in 10.0 mi WSW 10.4 mph - N/A   Mostly Cloudy
2:53 PM 77.0 °F 69.1 °F 76% 30.12 in 10.0 mi West 9.2 mph - N/A   Mostly Cloudy
3:53 PM 75.9 °F 69.1 °F 79% 30.10 in 10.0 mi West 10.4 mph - N/A   Partly Cloudy
4:53 PM 77.0 °F 69.1 °F 76% 30.10 in 10.0 mi West 11.5 mph - N/A   Clear
5:53 PM 73.9 °F 69.1 °F 85% 30.11 in 10.0 mi West 4.6 mph - N/A   Clear
6:53 PM 72.0 °F 69.1 °F 91% 30.11 in 10.0 mi WNW 6.9 mph - N/A   Clear
7:53 PM 71.1 °F 69.1 °F 93% 30.12 in 10.0 mi NW 4.6 mph - N/A   Clear
8:49 PM 69.8 °F 69.8 °F 100% 30.13 in 8.0 mi NW 5.8 mph - N/A   Mostly Cloudy
8:53 PM 70.0 °F 69.1 °F 97% 30.13 in 8.0 mi NW 6.9 mph - N/A   Mostly Cloudy
9:05 PM 69.1 °F 69.1 °F 100% 30.13 in 0.5 mi NW 5.8 mph - N/A Fog Fog
9:30 PM 68.0 °F 66.9 °F 96% 30.14 in 0.2 mi NW 6.9 mph - N/A Fog Fog
9:46 PM 66.9 °F 66.9 °F 100% 30.14 in 0.5 mi NW 5.8 mph - N/A Fog Fog
9:53 PM 66.9 °F 66.9 °F 100% 30.13 in 0.5 mi NW 5.8 mph - N/A Fog Fog
9:58 PM 66.9 °F 66.9 °F 100% 30.14 in 1.0 mi NW 5.8 mph - N/A   Mist
10:10 PM 66.9 °F 66.9 °F 100% 30.13 in 2.0 mi NW 5.8 mph - N/A   Overcast
10:19 PM 66.9 °F 66.9 °F 100% 30.13 in 1.2 mi NW 4.6 mph - N/A   Overcast
10:53 PM 66.9 °F 66.9 °F 100% 30.14 in 1.2 mi NNW 6.9 mph - N/A   Overcast
11:53 PM 66.9 °F 66.9 °F 100% 30.11 in 0.5 mi NNW 3.5 mph - N/A Fog Fog